Flag for Austria Weather past 2 weeks in Kirchdorf an der Krems, Upper Austria, Austria

Now
76 °F

Passing clouds.


Feels Like: 78 °F
Forecast: 46 / 75 °F
Wind: 7 mph from East

Location: Kremsmuenster

Current Time: Sep 17, 2014 at 6:21:21 PM

Latest Report: Sep 17, 2014 at 5:00 PM


Visibility: 38 mi

Pressure: 29.88 "Hg

Humidity: 43%

Dew point: 51 °F

Location of Kirchdorf an der KremsLocation

Historic Weather in Kirchdorf an der Krems — Graph

°F

Kirchdorf an der Krems temperature yesterday

Maximum temperature yesterday: 72 °F (at 3:00 PM)
Minimum temperature yesterday: 53 °F (at 7:00 AM)
Average temperature yesterday: 61 °F

Past Weeks' High & Low Weather Summary

 TemperatureHumidityPressure
High79 °F (Sep 8, 5:00 PM)99% (Sep 15, 12:00 AM)30.15 "Hg (Sep 15, 12:00 AM)
Low49 °F (Sep 17, 7:00 AM)42% (Sep 17, 4:00 PM)29.88 "Hg (Sep 17, 5:00 PM)
Average61 °F85%30.00 "Hg
* Reported Sep 2 5:00 PM — Sep 17 5:00 PM, Kirchdorf an der Krems, Weather by CustomWeather, © 2014

Note: Actual official high and low records may vary slightly from our data, if they occured in-between our weather recording intervals... More about our weather records

Advertising

Kirchdorf an der Krems weather history for previous 24 hours

 ConditionsComfort  
Time TempWeatherWind HumidityBarometerVisibility
5:00 PM
Sep 17
76 °FPassing clouds.7 mph43%29.88 "Hg37 mi
4:00 PM76 °FMild.7 mph42%29.88 "HgN/A
3:00 PM76 °FMild.6 mph47%29.89 "HgN/A
2:00 PM73 °FMild.6 mph52%29.91 "HgN/A
1:00 PM72 °FMild.5 mph57%29.93 "HgN/A
12:00 PM67 °FMild.5 mph65%29.95 "HgN/A
11:00 AM63 °FSunny.2 mph75%29.97 "Hg34 mi
10:00 AM58 °FCool.1 mph89%29.99 "HgN/A
9:00 AM53 °FCool.1 mph98%30.00 "HgN/A
8:00 AM50 °FFog.1 mph99%30.01 "Hg0 mi
7:00 AM49 °FFog.No wind99%30.01 "Hg0 mi
6:00 AM50 °FCool.2 mph99%30.00 "HgN/A
5:00 AM52 °FCool.1 mph97%30.00 "HgN/A
4:00 AM52 °FCool.1 mph97%30.00 "HgN/A
3:00 AM53 °FCool.2 mph97%30.01 "HgN/A
2:00 AM55 °FCool.No wind95%30.01 "HgN/A
1:00 AM57 °FCool.3 mph93%30.01 "HgN/A
12:00 AM58 °FCool.3 mph92%30.01 "HgN/A
11:00 PM
Sep 16
58 °FCool.5 mph91%30.01 "HgN/A
10:00 PM60 °FCool.5 mph86%30.00 "HgN/A
9:00 PM62 °FCool.5 mph83%30.00 "HgN/A
8:00 PM63 °FPassing clouds.5 mph80%29.99 "Hg12 mi
7:00 PM66 °FMild.5 mph73%29.98 "HgN/A
6:00 PM69 °FMild.7 mph66%29.96 "HgN/A
Weather by CustomWeather, © 2014

See weather overviewHow to use our weather pages